Estación de Colina
Ultimos registro cada 15 minutos 39
| N° | Estación | Fecha / Hora | Temperatura | Humedad | Lluvia | Velocidad | Dirección | Radiación | Presion |
| 39 | Colina | 07-05-2026 09:30 | 11,1 | 89 | 0 | 0,4 | 180 | 214 | 1024,3 |
| 38 | Colina | 07-05-2026 09:15 | 10,7 | 89 | 0 | 0 | 180 | 193 | 1024,4 |
| 37 | Colina | 07-05-2026 09:00 | 10,4 | 90 | 0 | 0 | 180 | 183 | 1024,2 |
| 36 | Colina | 07-05-2026 08:45 | 10,3 | 91 | 0 | 0 | 256 | 123 | 1024,2 |
| 35 | Colina | 07-05-2026 08:30 | 10,1 | 91 | 0 | 0 | 256 | 79 | 1024 |
| 34 | Colina | 07-05-2026 08:15 | 9,9 | 91 | 0 | 0 | 255 | 54 | 1024 |
| 33 | Colina | 07-05-2026 08:00 | 9,8 | 91 | 0 | 0 | 260 | 44 | 1023,7 |
| 32 | Colina | 07-05-2026 07:45 | 9,8 | 91 | 0 | 0 | 260 | 25 | 1023,5 |
| 31 | Colina | 07-05-2026 07:30 | 9,8 | 91 | 0 | 0 | 260 | 5 | 1023,3 |
| 30 | Colina | 07-05-2026 07:15 | 9,8 | 91 | 0 | 0 | 260 | 0 | 1023,3 |
| 29 | Colina | 07-05-2026 07:00 | 9,7 | 91 | 0 | 0 | 260 | 0 | 1023,1 |
| 28 | Colina | 07-05-2026 06:45 | 9,7 | 91 | 0 | 0 | 260 | 0 | 1022,9 |
| 27 | Colina | 07-05-2026 06:30 | 9,6 | 91 | 0 | 0 | 260 | 0 | 1022,7 |
| 26 | Colina | 07-05-2026 06:15 | 9,6 | 91 | 0 | 0 | 260 | 0 | 1022,6 |
| 25 | Colina | 07-05-2026 06:00 | 9,7 | 91 | 0 | 0 | 260 | 0 | 1022,5 |
| 24 | Colina | 07-05-2026 05:45 | 9,8 | 91 | 0 | 0 | 260 | 0 | 1022,4 |
| 23 | Colina | 07-05-2026 05:30 | 9,7 | 91 | 0 | 0 | 260 | 0 | 1022,3 |
| 22 | Colina | 07-05-2026 05:15 | 9,7 | 91 | 0 | 0 | 260 | 0 | 1022 |
| 21 | Colina | 07-05-2026 05:00 | 9,7 | 91 | 0 | 0 | 260 | 0 | 1021,8 |
| 20 | Colina | 07-05-2026 04:45 | 9,8 | 91 | 0 | 0 | 260 | 0 | 1021,7 |
| 19 | Colina | 07-05-2026 04:30 | 9,8 | 91 | 0 | 0 | 260 | 0 | 1021,8 |
| 18 | Colina | 07-05-2026 04:15 | 9,8 | 91 | 0 | 0 | 260 | 0 | 1021,9 |
| 17 | Colina | 07-05-2026 04:00 | 9,7 | 91 | 0 | 0 | 260 | 0 | 1021,7 |
| 16 | Colina | 07-05-2026 03:45 | 9,6 | 91 | 0 | 0 | 260 | 0 | 1021,8 |
| 15 | Colina | 07-05-2026 03:30 | 9,3 | 91 | 0 | 0 | 260 | 0 | 1021,7 |
| 14 | Colina | 07-05-2026 03:15 | 9,1 | 90 | 0 | 0 | 260 | 0 | 1021,7 |
| 13 | Colina | 07-05-2026 03:00 | 9 | 90 | 0 | 0 | 260 | 0 | 1021,7 |
| 12 | Colina | 07-05-2026 02:45 | 8,9 | 90 | 0,2 | 0 | 260 | 0 | 1021,6 |
| 11 | Colina | 07-05-2026 02:30 | 8,8 | 90 | 0 | 0 | 260 | 0 | 1021,5 |
| 10 | Colina | 07-05-2026 02:15 | 8,6 | 89 | 0 | 0 | 260 | 0 | 1021,5 |
| 9 | Colina | 07-05-2026 02:00 | 8,7 | 87 | 0 | 0,4 | 260 | 0 | 1021,6 |
| 8 | Colina | 07-05-2026 01:45 | 9,3 | 87 | 0 | 0 | 260 | 0 | 1021,4 |
| 7 | Colina | 07-05-2026 01:30 | 9,7 | 86 | 0 | 0 | 260 | 0 | 1021 |
| 6 | Colina | 07-05-2026 01:15 | 10,4 | 87 | 0 | 0 | 180 | 0 | 1021 |
| 5 | Colina | 07-05-2026 01:00 | 11 | 87 | 0 | 0 | 180 | 0 | 1021,1 |
| 4 | Colina | 07-05-2026 00:45 | 11,3 | 88 | 0 | 0 | 180 | 0 | 1021 |
| 3 | Colina | 07-05-2026 00:30 | 11,4 | 92 | 0 | 0 | 180 | 0 | 1021,2 |
| 2 | Colina | 07-05-2026 00:15 | 11,5 | 89 | 0 | 0 | 180 | 0 | 1021,2 |
| 1 | Colina | 07-05-2026 00:00 | 11,6 | 89 | 0 | 0 | 180 | 0 | 1021,1 |